Weather History for Grand Marais, MN

Change the Weather History Date:

Thursday, December 1, 2011

  Actual Average (KCKC) Record (KCKC)
Temperature  
Mean Temperature 19 °F -  
Max Temperature 28 °F 26 °F 37 °F (1999)
Min Temperature 10 °F 14 °F -20 °F (2007)
Degree Days  
Heating Degree Days 46    
Moisture  
Dew Point 8 °F    
Average Humidity 59    
Maximum Humidity 76    
Minimum Humidity 40    
Precipitation  
Precipitation 0.00 in - - ()
Sea Level Pressure  
Sea Level Pressure 30.38 in    
Wind  
Wind Speed 5 mph (NW)    
Max Wind Speed 10 mph    
Max Gust Speed 20 mph    
Averages and records for this station are not official NWS values.
T = Trace of Precipitation, MM = Missing Value Source: NWS Daily Summary

Daily Weather History Graph

Daily Weather History Graph

Search for Another Location

Airport:

Trip Planner

Search our weather history database for the weather conditions in past years. The results will help you decide how hot, cold, wet, or windy it might be!

Date:

Astronomy

Dec. 01, 2011 Rise Set
Actual Time 7:28 AM CST 4:11 PM CST
Civil Twilight 6:53 AM CST 4:46 PM CST
Nautical Twilight 6:14 AM CST 5:25 PM CST
Astronomical Twilight 5:37 AM CST 6:02 PM CST
Moon 11:55 AM CST (12/1) 11:30 PM CST (12/1)
Length of Visible Light 9h 53m
Length of Day
8h 42m
Waxing Crescent, 43% of the Moon is Illuminated
Dec 1
Waxing Crescent
Dec 2
First Quarter
Dec 10
Full
Dec 17
Last Quarter
Dec 24
New

Hourly Weather History & Observations

Time (CST) Temp. Windchill Dew Point Humidity Pressure Visibility Wind Dir Wind Speed Gust Speed Precip Events Conditions
12:56 AM 28.9 °F 19.8 °F 19.0 °F 67% 30.17 in - North 10.4 mph 19.6 mph N/A   Unknown
1:56 AM 28.0 °F - 18.0 °F 66% 30.21 in - Calm Calm - N/A   Unknown
2:56 AM 28.0 °F 24.2 °F 18.0 °F 66% 30.24 in - Variable 3.5 mph - N/A   Unknown
3:56 AM 26.1 °F 21.9 °F 16.0 °F 66% 30.26 in - Variable 3.5 mph - N/A   Unknown
4:56 AM 25.0 °F 20.7 °F 15.1 °F 66% 30.29 in - North 3.5 mph - N/A   Unknown
5:56 AM 24.1 °F 19.7 °F 15.1 °F 69% 30.31 in - Variable 3.5 mph - N/A   Unknown
6:56 AM 23.0 °F 18.4 °F 12.9 °F 65% 30.34 in - Variable 3.5 mph - N/A   Unknown
7:56 AM 21.9 °F 17.2 °F 12.0 °F 66% 30.37 in - Variable 3.5 mph - N/A   Unknown
8:56 AM 21.0 °F 13.4 °F 7.0 °F 55% 30.41 in - ENE 5.8 mph - N/A   Unknown
9:00 AM - - - N/A% - - North - - N/A   Unknown
9:56 AM 23.0 °F - 5.0 °F 46% 30.43 in - Calm Calm - N/A   Unknown
10:56 AM 23.0 °F 13.9 °F 3.0 °F 42% 30.43 in - North 8.1 mph 16.1 mph N/A   Unknown
11:56 AM 25.0 °F 19.3 °F 5.0 °F 43% 30.44 in - Variable 4.6 mph - N/A   Unknown
12:56 PM 24.1 °F 18.2 °F 3.9 °F 42% 30.44 in - Variable 4.6 mph - N/A   Unknown
1:56 PM 23.0 °F 14.7 °F 1.9 °F 40% 30.43 in - Variable 6.9 mph - N/A   Unknown
2:56 PM 21.9 °F 15.7 °F 1.9 °F 42% 30.44 in - NW 4.6 mph - N/A   Unknown
3:56 PM 19.9 °F 12.1 °F 3.0 °F 48% 30.45 in - Variable 5.8 mph - N/A   Unknown
4:56 PM 17.1 °F - 3.9 °F 56% 30.46 in - Calm Calm - N/A   Unknown
5:56 PM 12.9 °F 6.9 °F 5.0 °F 71% 30.45 in - NW 3.5 mph - N/A   Unknown
6:56 PM 10.9 °F 4.7 °F 3.9 °F 73% 30.45 in - NW 3.5 mph - N/A   Unknown
7:56 PM 10.0 °F 3.6 °F 3.9 °F 76% 30.45 in - NW 3.5 mph - N/A   Unknown
8:56 PM 10.0 °F 1.8 °F 3.0 °F 73% 30.44 in - West 4.6 mph - N/A   Unknown
9:56 PM 14.0 °F 3.9 °F 1.9 °F 59% 30.42 in - WNW 6.9 mph - N/A   Unknown
10:56 PM 17.1 °F 5.8 °F 5.0 °F 59% 30.41 in - SW 9.2 mph - N/A   Unknown
11:56 PM 14.0 °F 2.9 °F 1.9 °F 59% 30.39 in - WNW 8.1 mph - N/A   Unknown